Location: Sevilla
(37.3933°N, 5.9839°W)
Time: 05:13:31
(UTC+02:00)

Transit 2A - Pass Details

Date: 30 June 2024
Orbit: 591 x 960 km, 66.7° (Epoch: 15 July)

Event Time Altitude Azimuth Distance (km) Brightness Sun altitude
Rises 23:02:59 0° 343° (NNW) 3,559 10.5 -12.7°
Reaches altitude 10° 23:06:09 10° 359° (N) 2,653 9.4 -13.1°
Maximum altitude 23:10:48 21° 48° (NE) 1,989 8.1 -13.8°
Enters shadow 23:15:17 11° 94° (E) 2,635 8.3 -14.4°
Drops below altitude 10° 23:15:30 10° 96° (E) 2,690 - -14.5°
Sets 23:18:43 0° 111° (ESE) 3,621 - -14.9°
